Temp
6 8 10 10 10 11 11 11 10 10 9 8 9 9 9 9 9 9 10 11 11 12 12 13 13 14 14 15 17 18 18 18 17 17 17 18 17 17 17 16 16 16 18 18 18 16 16
5 5 6 9 9 10 10 10 11 10 10 9 9 9 8 9 9 9 10 10 11 11 12 12 13 13 13 13 17 17 17 18 17 17 17 18 17 17 17 16 17 17 17 16 16 16 16
3 4 4 5 6 8 10 9 10 11 10 10 10 9 9 8 9 9 9 10 10 11 12 12 12 13 13 16 17 17 17 17 17 17 18 18 17 17 17 17 17 17 18 18 17 16 16
3 3 3 3 4 4 6 9 9 10 10 10 10 9 9 8 8 8 9 9 10 11 12 12 12 12 14 17 17 17 17 17 17 18 18 17 17 17 17 17 17 17 17 18 18 17 16
1 2 3 3 3 3 3 4 7 9 10 10 10 9 9 8 8 8 8 9 9 11 12 12 12 11 15 16 17 17 17 18 18 18 17 17 17 17 16 16 17 16 18 17 18 17 16
1 1 1 2 3 3 3 3 4 7 9 10 10 10 9 8 8 8 8 9 10 11 12 11 11 10 15 16 16 17 18 18 17 17 17 16 16 16 15 17 17 17 17 17 17 17 17
1 1 1 1 2 3 3 3 2 4 7 10 10 10 9 8 7 6 7 9 11 10 9 14 13 14 16 16 16 17 18 18 17 17 16 15 17 17 16 15 16 17 17 17 17 17 18
2 1 1 1 1 1 3 3 2 2 4 6 10 10 9 8 6 7 7 8 9 8 8 13 14 12 15 15 14 17 17 17 17 16 15 16 16 16 15 15 16 16 17 17 17 17 17
2 2 2 1 1 1 1 3 2 2 2 3 4 8 9 8 6 6 6 8 8 8 7 11 14 14 15 15 14 16 17 18 16 15 15 15 17 15 16 16 16 16 17 16 17 17 16
1 1 1 1 1 1 1 2 3 2 2 2 3 4 6 6 6 7 7 8 8 8 9 12 12 13 14 15 14 17 17 18 15 16 14 15 15 15 16 16 16 16 17 17 17 17 18
2 1 1 2 2 2 1 1 2 3 2 2 2 3 4 4 7 7 7 8 9 8 10 14 12 14 13 15 17 16 18 17 15 15 16 16 15 15 16 16 16 17 16 17 17 17 16
2 2 2 2 2 2 2 1 2 2 2 1 2 3 3 4 6 8 8 8 8 9 10 14 13 12 13 14 16 15 17 17 16 15 15 15 15 16 16 16 16 16 16 15 14 15 16
2 2 2 2 2 1 2 1 2 2 2 2 1 2 2 4 5 8 7 7 9 9 13 14 14 13 14 14 15 15 15 15 16 15 14 15 16 16 16 17 16 16 16 16 16 15 16
2 2 2 2 2 1 1 1 1 1 2 2 1 2 2 3 4 6 6 7 8 10 12 14 14 13 14 14 15 15 14 15 14 15 14 16 15 16 16 17 17 15 17 16 15 15 16
2 2 2 2 2 2 1 1 1 1 2 2 1 2 2 2 4 5 7 8 10 11 12 13 15 14 14 14 16 15 14 15 15 15 16 14 15 15 15 16 17 16 16 15 13 10 13
2 2 2 2 2 1 1 1 1 1 2 1 1 1 2 2 3 5 6 9 10 12 13 13 13 14 13 13 14 15 13 14 15 14 16 15 16 15 15 16 15 16 15 16 14 14 14
2 2 2 2 2 1 1 1 1 1 1 1 1 1 2 2 4 5 6 8 10 12 13 13 12 13 13 13 14 13 14 15 15 14 15 14 16 15 15 16 17 15 15 13 15 14 15
1 1 2 2 2 2 1 1 1 1 1 0 1 2 3 3 4 6 6 8 10 11 12 12 12 12 13 13 12 13 15 16 15 14 15 14 14 14 16 15 15 15 16 15 15 14 12
1 1 0 1 2 2 1 1 1 1 1 1 1 2 3 4 4 5 7 9 10 10 11 11 12 12 13 13 13 13 13 15 14 14 14 13 13 14 15 15 15 16 15 13 12 11 13
0 1 0 1 1 2 1 1 1 1 1 1 1 2 3 3 5 7 7 7 9 9 9 11 11 11 12 13 12 14 13 13 14 14 15 15 12 14 15 16 15 14 14 13 15 13 14
0 0 0 0 1 1 1 1 1 0 0 0 1 3 5 4 4 6 8 8 8 8 10 10 10 11 12 12 13 12 13 13 12 12 12 14 14 13 13 14 14 15 15 13 15 15 15
0 0 0 0 1 1 0 1 1 -0 0 0 1 3 4 6 5 5 7 7 8 9 10 10 10 10 11 11 13 13 13 13 13 11 12 12 14 12 13 12 14 14 14 13 13 13 14
0 0 -0 0 0 1 1 1 0 -0 -0 0 1 4 5 5 5 5 6 7 8 9 9 11 11 10 9 11 12 12 13 13 13 13 11 11 11 11 13 11 13 12 13 14 14 13 15
0 0 -0 1 0 1 1 1 0 -0 0 0 1 3 4 4 5 6 6 7 8 9 9 10 11 10 11 12 12 12 12 10 10 10 12 10 10 9 10 9 12 15 12 14 14 14 13
-0 0 0 -0 0 1 1 0 0 0 -0 0 1 3 5 4 6 6 6 7 8 8 8 10 10 11 11 12 10 11 9 11 10 9 9 10 9 8 10 12 12 14 13 13 13 16 13
0 -0 -0 -0 -0 1 0 0 -0 0 0 0 1 3 4 4 5 7 6 7 7 7 7 9 10 11 11 7 8 9 10 11 11 10 9 7 8 12 7 11 12 14 13 12 13 13 13
0 0 0 0 1 1 0 0 -0 -0 1 -0 1 2 2 2 5 6 7 7 7 7 6 7 9 10 10 5 6 8 10 11 11 10 9 8 8 10 7 10 11 12 12 13 14 15 12
1 1 1 1 1 0 0 -0 -0 -0 -0 -0 0 1 1 1 2 4 6 7 7 8 7 7 8 8 6 6 7 7 7 9 10 10 9 11 9 9 7 9 13 11 11 13 14 13 13
1 1 1 1 0 -0 -0 -0 -0 -0 -1 -0 -0 -0 0 1 1 1 3 5 6 8 9 8 9 8 8 7 6 5 7 5 9 12 9 11 11 11 12 12 12 11 15 15 15 15 13
Height
1519 1520 1520 1520 1520 1521 1522 1523 1523 1524 1525 1525 1526 1528 1528 1529 1528 1528 1527 1525 1523 1521 1519 1517 1515 1513 1511 1509 1505 1505 1505 1505 1506 1508 1509 1509 1510 1511 1511 1511 1511 1510 1504 1501 1500 1502 1503
1513 1514 1514 1515 1515 1515 1515 1517 1518 1519 1520 1520 1522 1523 1524 1524 1525 1524 1523 1523 1521 1519 1517 1515 1513 1511 1510 1509 1502 1503 1504 1505 1505 1507 1509 1509 1509 1510 1510 1510 1509 1505 1503 1501 1501 1502 1503
1508 1508 1508 1508 1509 1510 1510 1511 1512 1514 1515 1516 1516 1517 1519 1519 1521 1520 1520 1519 1518 1516 1514 1513 1511 1508 1507 1503 1501 1501 1503 1504 1505 1507 1509 1509 1509 1510 1509 1508 1506 1503 1502 1500 1501 1504 1505
1502 1503 1503 1502 1503 1504 1505 1506 1507 1508 1510 1511 1512 1512 1514 1515 1516 1516 1516 1516 1514 1513 1510 1509 1508 1507 1500 1498 1498 1500 1502 1503 1504 1506 1507 1508 1508 1508 1508 1507 1506 1505 1504 1504 1501 1503 1505
1493 1494 1496 1497 1496 1497 1500 1500 1501 1503 1505 1506 1508 1508 1509 1511 1512 1512 1511 1512 1511 1508 1506 1505 1505 1505 1496 1494 1496 1498 1500 1502 1503 1505 1506 1507 1507 1506 1508 1508 1510 1509 1508 1508 1504 1503 1504
1486 1486 1488 1490 1491 1491 1493 1495 1495 1497 1500 1501 1503 1504 1504 1506 1508 1508 1508 1508 1508 1504 1502 1500 1500 1506 1493 1492 1493 1496 1498 1500 1502 1503 1505 1506 1506 1506 1509 1506 1515 1509 1509 1508 1506 1504 1503
1478 1478 1480 1481 1482 1485 1485 1488 1491 1491 1493 1496 1498 1500 1502 1501 1504 1506 1506 1506 1507 1503 1500 1492 1495 1491 1488 1490 1491 1494 1495 1497 1499 1501 1503 1505 1506 1506 1504 1504 1504 1504 1505 1504 1502 1503 1503
1469 1471 1472 1474 1475 1477 1479 1481 1483 1487 1487 1490 1493 1496 1498 1498 1501 1503 1504 1504 1503 1506 1497 1487 1487 1486 1486 1487 1489 1490 1493 1496 1497 1500 1501 1505 1506 1501 1502 1504 1505 1506 1506 1505 1502 1500 1502
1459 1461 1463 1464 1466 1468 1471 1474 1477 1480 1483 1485 1487 1491 1493 1496 1497 1500 1502 1502 1501 1501 1501 1480 1477 1476 1477 1481 1483 1485 1489 1490 1493 1499 1500 1503 1499 1498 1501 1502 1505 1503 1503 1507 1504 1501 1503
1447 1450 1452 1454 1457 1460 1463 1466 1470 1473 1477 1479 1484 1485 1489 1493 1498 1497 1498 1499 1498 1500 1502 1477 1470 1467 1469 1475 1478 1480 1483 1487 1491 1494 1499 1499 1496 1498 1500 1500 1499 1505 1497 1500 1501 1502 1504
1436 1438 1440 1444 1447 1450 1454 1457 1462 1465 1470 1474 1478 1482 1483 1489 1492 1494 1498 1497 1496 1499 1503 1466 1464 1466 1465 1468 1467 1473 1478 1483 1487 1490 1494 1495 1494 1497 1500 1497 1497 1498 1497 1498 1499 1502 1506
1422 1425 1428 1431 1435 1440 1444 1449 1454 1459 1463 1469 1472 1477 1480 1482 1487 1490 1495 1495 1498 1501 1493 1465 1460 1463 1466 1466 1465 1468 1474 1480 1483 1488 1490 1491 1491 1492 1492 1492 1493 1494 1497 1502 1505 1505 1511
1408 1411 1414 1418 1423 1428 1434 1440 1444 1451 1457 1462 1467 1471 1474 1478 1481 1487 1492 1496 1499 1493 1462 1459 1459 1459 1463 1464 1465 1464 1470 1476 1481 1493 1494 1492 1490 1488 1489 1493 1493 1494 1498 1508 1511 1513 1509
1392 1396 1400 1405 1410 1416 1422 1429 1435 1441 1450 1456 1462 1466 1467 1471 1477 1483 1489 1496 1488 1471 1463 1453 1455 1458 1462 1461 1463 1465 1470 1474 1477 1480 1492 1492 1497 1486 1485 1486 1488 1494 1493 1505 1513 1513 1506
1376 1379 1384 1390 1396 1402 1409 1418 1426 1432 1441 1449 1457 1459 1460 1463 1472 1479 1484 1481 1464 1466 1458 1456 1455 1459 1463 1460 1459 1462 1468 1468 1469 1472 1482 1493 1491 1482 1482 1484 1486 1492 1495 1494 1510 1524 1514
1360 1363 1368 1374 1381 1388 1397 1406 1415 1423 1432 1441 1447 1454 1453 1459 1468 1473 1477 1459 1458 1454 1454 1454 1456 1452 1459 1460 1460 1461 1469 1462 1464 1466 1467 1478 1487 1482 1482 1484 1487 1488 1490 1499 1505 1512 1514
1341 1347 1353 1359 1366 1375 1383 1393 1403 1414 1424 1435 1440 1448 1444 1455 1462 1464 1455 1446 1452 1450 1453 1454 1454 1453 1453 1456 1454 1460 1460 1457 1456 1463 1467 1473 1478 1487 1483 1484 1483 1491 1492 1497 1498 1504 1504
1322 1328 1336 1344 1351 1360 1368 1379 1391 1403 1416 1427 1429 1436 1439 1449 1451 1446 1440 1439 1445 1448 1450 1452 1452 1450 1450 1450 1454 1456 1453 1451 1450 1454 1466 1468 1475 1486 1479 1479 1478 1479 1482 1487 1496 1502 1509
1305 1311 1317 1326 1335 1344 1354 1364 1378 1391 1402 1412 1417 1425 1432 1441 1433 1430 1430 1434 1439 1443 1445 1449 1450 1448 1446 1448 1453 1450 1449 1445 1447 1451 1457 1464 1477 1483 1480 1482 1480 1478 1480 1484 1490 1498 1500
1283 1290 1299 1309 1319 1328 1339 1350 1364 1377 1390 1404 1412 1415 1422 1433 1427 1423 1427 1428 1433 1438 1443 1443 1445 1447 1446 1446 1448 1446 1448 1446 1445 1447 1448 1452 1467 1469 1475 1473 1472 1479 1476 1478 1478 1491 1486
1259 1269 1279 1290 1302 1313 1324 1335 1350 1364 1379 1392 1395 1396 1395 1405 1420 1418 1418 1417 1424 1430 1436 1439 1442 1443 1446 1449 1448 1448 1445 1447 1448 1448 1450 1451 1462 1466 1464 1464 1466 1465 1467 1474 1474 1472 1477
1235 1246 1259 1272 1286 1298 1311 1320 1336 1353 1369 1379 1380 1382 1391 1390 1404 1419 1414 1409 1413 1423 1425 1430 1434 1438 1443 1446 1443 1444 1445 1447 1448 1451 1450 1451 1458 1463 1465 1466 1465 1464 1462 1468 1470 1470 1470
1213 1226 1241 1256 1271 1285 1297 1309 1325 1342 1360 1362 1369 1375 1382 1384 1392 1408 1401 1407 1411 1420 1422 1423 1430 1435 1441 1439 1441 1444 1444 1445 1445 1447 1451 1454 1457 1464 1466 1470 1467 1474 1463 1460 1460 1459 1457
1201 1213 1227 1244 1261 1275 1288 1299 1316 1333 1344 1354 1362 1372 1377 1381 1383 1387 1402 1409 1410 1410 1418 1425 1427 1432 1437 1439 1440 1442 1442 1442 1442 1442 1444 1451 1455 1464 1469 1476 1476 1448 1451 1451 1452 1451 1451
1194 1202 1219 1238 1254 1268 1279 1293 1310 1326 1342 1352 1361 1369 1373 1382 1382 1386 1395 1404 1410 1415 1420 1423 1425 1428 1435 1437 1441 1442 1446 1443 1443 1442 1442 1441 1452 1465 1466 1464 1456 1447 1448 1450 1452 1439 1439
1198 1209 1223 1237 1249 1262 1273 1289 1306 1322 1338 1351 1360 1367 1373 1381 1378 1384 1388 1397 1405 1410 1420 1421 1424 1429 1434 1438 1442 1445 1439 1443 1441 1441 1443 1444 1445 1445 1469 1459 1459 1440 1436 1439 1443 1445 1433
1204 1214 1225 1237 1248 1258 1272 1288 1305 1320 1335 1350 1358 1367 1375 1378 1379 1380 1380 1387 1401 1407 1413 1418 1422 1428 1432 1440 1444 1443 1437 1432 1438 1438 1443 1446 1450 1446 1461 1452 1444 1432 1433 1438 1450 1435 1426
1210 1220 1228 1238 1247 1259 1274 1289 1305 1320 1334 1348 1358 1367 1373 1375 1377 1379 1381 1383 1392 1399 1406 1413 1424 1425 1431 1435 1436 1435 1438 1429 1431 1431 1433 1431 1442 1447 1454 1452 1443 1425 1434 1437 1423 1423 1424
1219 1226 1233 1241 1252 1265 1279 1293 1307 1321 1337 1349 1358 1365 1372 1377 1378 1378 1379 1381 1385 1391 1400 1406 1405 1409 1416 1422 1425 1428 1429 1434 1425 1426 1429 1429 1419 1424 1423 1421 1415 1415 1412 1414 1416 1419 1420
Wind_Speed
26 27 27 26 24 24 24 25 25 27 27 25 23 22 21 21 20 19 20 20 19 19 20 19 19 18 15 7 6 5 3 2 4 8 10 8 4 2 2 3 2 5 5 9 7 3 4
28 28 28 28 28 26 23 23 23 22 23 27 26 24 21 21 21 20 19 19 20 20 20 19 19 18 13 6 5 5 2 5 6 9 11 6 2 2 2 3 4 2 5 7 2 7 5
28 29 28 27 27 29 28 24 23 22 21 22 25 26 24 21 21 20 20 18 19 20 21 20 18 18 16 18 6 9 7 7 7 7 8 3 2 2 4 2 6 5 4 0 3 2 2
28 26 29 29 27 26 27 29 25 24 22 21 20 23 24 22 21 22 20 18 19 21 21 21 18 17 10 9 12 14 10 4 6 9 7 3 3 5 3 3 5 2 1 2 2 3 1
32 33 28 28 31 27 26 26 27 26 24 22 19 18 21 21 22 22 18 17 20 21 21 20 17 9 9 6 12 15 13 7 6 6 6 5 5 1 1 2 2 4 2 2 2 4 2
32 32 35 33 28 30 28 26 26 27 26 24 21 19 17 17 18 20 16 15 20 20 19 13 13 7 10 3 5 10 12 11 7 4 6 3 2 1 1 2 4 3 2 1 3 3 1
32 31 32 35 34 28 30 28 27 26 26 26 23 20 18 15 16 16 14 11 10 7 8 9 5 5 4 2 6 11 13 12 9 4 4 1 2 5 6 5 3 2 3 2 1 2 4
39 38 37 34 33 36 28 31 29 25 24 24 23 23 20 15 14 15 11 8 7 7 12 16 20 30 26 18 5 11 14 11 7 4 4 1 4 4 2 2 3 2 2 2 2 1 1
44 44 42 40 34 30 40 30 32 28 24 21 21 21 20 15 12 14 12 11 12 8 6 12 19 21 26 19 14 14 19 12 5 6 6 5 2 5 3 3 4 3 4 2 2 2 1
44 43 41 41 40 36 33 39 30 31 27 22 18 19 15 12 11 11 13 8 10 8 3 7 6 8 15 13 7 19 21 14 2 10 8 4 2 4 4 4 6 4 5 3 1 0 2
48 46 44 43 42 40 35 41 38 32 30 25 21 18 15 15 7 4 3 2 4 9 3 2 4 3 12 16 14 17 23 10 9 7 6 4 4 3 5 6 5 5 3 2 2 2 1
51 51 50 48 44 42 38 34 41 36 31 29 23 19 17 21 23 12 11 6 6 1 8 3 7 6 6 7 5 11 10 8 7 5 1 3 2 4 5 2 5 3 3 3 3 2 2
49 49 50 50 48 44 40 39 36 45 35 31 26 22 23 25 21 20 14 5 3 7 2 3 4 5 6 5 4 4 8 7 7 5 5 0 3 2 3 3 1 3 2 2 1 2 3
51 50 49 49 49 47 43 39 37 36 42 34 29 26 26 30 16 22 16 3 11 5 6 2 2 4 7 6 4 3 9 9 2 4 4 6 3 8 5 5 6 6 5 4 3 3 2
49 49 48 49 50 49 46 41 38 34 43 38 29 31 29 34 29 20 16 9 8 6 4 2 1 4 4 4 6 3 6 12 10 8 5 5 4 1 2 2 3 4 4 2 6 2 1
50 48 49 48 49 48 48 44 40 34 42 38 31 30 37 33 32 28 8 18 10 6 2 1 5 5 9 7 5 11 7 5 6 9 6 6 2 2 2 3 3 2 6 3 1 3 3
52 51 49 47 48 49 48 47 43 36 39 38 36 15 16 34 32 22 14 12 19 16 4 2 2 1 4 6 7 7 10 2 8 8 4 5 3 2 2 5 8 3 2 4 3 1 2
52 53 51 50 48 49 50 50 47 39 39 41 31 9 16 37 20 15 18 12 10 20 6 4 1 4 3 4 5 6 13 11 18 17 10 6 5 5 7 0 2 3 6 6 3 4 1
54 55 54 52 51 50 52 54 52 46 44 45 17 18 17 44 14 14 14 15 14 11 12 5 6 5 1 1 3 6 6 6 17 9 10 8 2 2 1 1 1 3 5 4 5 3 7
57 54 54 52 53 54 54 59 57 51 47 48 15 8 15 38 37 20 19 23 21 19 5 11 3 2 1 2 2 2 5 3 15 8 10 13 4 6 9 7 5 4 5 7 5 4 5
59 56 56 53 52 54 56 63 62 54 52 51 19 8 17 12 22 22 20 17 24 13 17 14 6 10 3 5 3 3 1 1 2 7 5 5 7 6 5 5 5 6 6 11 10 7 8
60 60 59 55 54 52 54 67 64 58 55 44 15 9 16 13 37 24 17 19 28 25 16 15 11 10 14 6 7 2 4 2 3 1 5 2 4 5 3 4 7 6 5 8 8 4 9
52 54 57 54 55 53 57 70 64 59 64 34 29 27 29 18 19 19 23 19 18 18 16 14 15 5 6 14 18 17 14 12 6 5 3 3 6 4 4 0 2 4 8 10 6 5 6
40 49 50 61 55 53 57 72 64 61 68 37 32 27 15 8 14 21 18 18 20 26 9 19 22 14 8 17 14 9 4 3 8 7 8 5 5 1 3 2 5 3 1 2 10 6 9
19 41 52 48 49 51 67 72 64 61 69 35 38 28 14 7 11 16 18 22 16 21 20 15 12 11 15 4 3 3 2 3 2 2 6 4 5 3 5 4 3 2 4 7 7 13 10
23 37 40 44 43 40 72 70 63 60 67 40 34 29 16 6 7 17 21 25 13 12 7 14 7 19 10 2 3 4 5 3 4 3 3 5 3 4 3 5 8 5 4 7 4 12 8
27 32 37 34 35 61 70 64 61 58 57 48 25 34 16 2 13 20 12 18 25 11 5 7 16 7 7 2 2 3 4 6 3 6 6 3 2 7 3 3 6 6 5 11 6 8 9
27 32 30 32 51 64 66 58 56 58 57 51 25 33 24 3 3 5 13 20 23 30 9 9 8 7 2 5 3 3 4 6 4 2 5 7 7 4 4 2 7 11 8 10 8 5 11
26 28 29 48 58 60 52 50 51 56 61 48 28 22 26 10 4 5 6 13 20 39 27 28 11 10 14 4 4 3 2 0 4 8 1 4 6 5 9 7 2 26 9 23 9 7 11
Wind_Direction
276 273 272 270 269 270 272 272 270 266 261 261 264 272 275 279 287 297 307 314 315 312 314 320 324 325 331 304 255 232 297 118 145 165 171 168 143 141 149 224 230 220 269 298 296 137 97
275 276 274 271 270 268 267 268 271 272 270 262 261 266 271 277 280 286 296 307 312 311 310 316 319 319 317 285 219 209 166 124 134 163 172 162 80 336 247 234 214 256 270 305 307 136 121
279 276 274 273 272 272 269 265 264 266 269 272 265 260 264 269 277 283 287 298 307 308 306 309 313 312 300 276 234 196 161 131 132 159 177 172 355 318 319 277 299 302 302 26 110 80 65
261 272 277 272 270 272 272 268 267 263 261 265 269 264 261 263 273 276 283 294 302 304 301 301 301 300 270 262 222 204 196 192 181 182 183 212 301 308 244 307 323 31 14 6 18 97 9
269 256 262 273 271 267 270 268 265 265 261 258 263 267 263 265 271 275 281 291 301 301 295 292 290 276 264 242 229 210 213 221 196 204 205 220 288 216 306 89 336 24 259 221 313 188 168
275 270 259 260 265 270 266 266 265 262 263 257 255 260 262 257 266 275 283 293 305 296 286 282 262 270 245 194 191 201 208 212 203 218 180 213 196 101 100 151 222 184 183 243 269 169 112
278 275 272 261 255 260 266 261 263 260 259 259 255 255 259 255 259 275 292 307 314 294 267 223 265 252 184 234 215 210 204 193 188 174 156 105 192 226 240 206 188 194 164 177 227 180 210
274 275 275 278 264 252 253 261 258 261 257 254 250 251 252 250 251 271 287 284 283 297 300 274 259 255 250 252 294 213 192 172 169 177 128 93 239 236 185 158 221 206 92 256 281 202 143
266 264 269 272 271 268 248 250 258 252 255 250 251 245 245 242 243 259 270 270 275 276 270 280 245 245 241 229 219 222 190 185 149 154 177 180 208 116 177 165 215 212 146 217 222 347 74
270 263 264 266 266 266 260 243 249 252 246 251 243 245 233 226 248 268 259 277 249 261 287 265 215 239 200 188 216 211 193 175 150 190 159 226 270 170 208 217 173 240 204 169 237 98 187
268 266 264 263 265 266 261 245 240 247 243 240 240 240 215 195 183 200 165 220 282 149 290 219 163 162 180 180 147 189 188 183 159 164 145 224 178 170 225 226 175 231 167 200 117 134 199
264 262 262 261 261 259 257 253 239 239 242 237 233 228 210 199 203 176 176 55 164 169 238 301 144 164 149 230 178 140 155 189 141 119 74 206 167 166 210 213 184 120 119 63 65 115 210
263 261 258 256 255 255 253 248 245 236 240 236 230 220 216 195 217 195 199 317 185 226 321 203 188 159 184 178 166 142 158 159 163 145 188 85 211 216 163 183 110 116 114 279 199 176 195
263 259 256 254 251 252 249 245 245 241 231 238 226 217 216 204 182 204 201 171 217 211 238 348 156 120 185 158 217 132 142 176 210 117 131 186 256 181 179 212 197 180 190 177 223 195 155
261 258 254 251 250 247 247 241 238 240 223 229 224 221 220 207 191 176 173 202 212 194 231 219 145 137 218 222 186 141 178 193 184 176 152 146 247 170 174 143 178 166 204 112 107 51 339
258 256 252 248 245 244 241 239 226 231 223 223 209 223 227 206 194 192 200 218 205 203 182 234 208 170 185 199 163 185 178 191 195 190 157 194 139 176 144 125 48 216 146 124 48 174 225
256 251 248 246 245 240 237 232 221 221 221 216 198 215 232 205 192 192 206 207 219 245 271 212 238 223 228 182 183 183 198 224 189 176 135 136 140 194 135 197 183 154 199 62 118 141 204
255 253 246 243 239 240 234 227 220 212 212 205 187 196 197 187 184 199 213 191 218 220 248 241 254 214 227 203 173 181 198 213 181 145 164 190 154 184 195 130 199 182 179 160 160 197 171
256 252 246 238 236 233 231 221 217 204 207 187 194 182 185 187 202 198 209 199 192 211 220 194 223 228 129 335 222 195 197 226 166 155 161 176 183 162 270 58 359 205 190 145 112 93 189
253 246 240 235 232 229 228 215 212 200 201 188 178 172 168 196 219 217 188 200 201 200 241 205 186 181 105 350 194 253 213 212 194 195 181 148 139 171 220 218 161 193 195 181 162 158 183
248 241 238 232 227 224 222 211 207 198 194 184 188 189 183 180 210 221 204 189 192 180 213 177 198 216 165 203 290 238 121 98 151 174 153 142 195 181 224 218 188 198 186 181 198 210 200
242 233 228 226 222 221 216 205 201 195 191 184 181 166 177 170 205 213 214 202 195 194 176 206 210 186 215 222 200 151 63 77 241 349 157 185 191 157 204 141 192 216 211 191 213 211 242
229 229 219 220 216 215 209 198 194 193 188 188 196 190 186 199 176 198 215 205 199 178 219 206 199 164 186 228 249 280 296 266 227 160 179 174 141 133 223 122 171 315 209 193 198 200 199
225 222 214 212 206 207 203 192 191 190 194 191 183 189 191 196 178 198 194 208 204 198 178 208 195 204 238 249 284 278 257 280 232 227 177 162 141 65 155 129 225 225 91 208 223 239 221
201 191 195 194 198 199 193 190 186 189 189 180 180 184 188 207 193 193 190 198 195 199 210 184 191 168 184 86 86 200 296 348 215 197 186 176 137 125 156 200 293 219 197 180 185 255 218
194 182 184 188 195 199 185 189 181 188 190 182 187 189 189 190 217 188 181 187 191 196 188 213 177 219 241 96 110 215 174 208 224 147 117 94 53 169 158 174 216 204 211 160 120 276 209
176 176 182 190 190 184 183 185 180 187 191 188 183 200 192 196 224 193 188 183 189 183 148 151 189 208 189 131 147 179 241 161 209 182 172 120 57 182 157 210 282 242 157 141 168 257 204
166 169 177 183 176 178 180 182 179 185 189 185 177 195 194 188 315 228 200 175 176 190 177 157 146 205 112 174 174 188 193 206 148 213 210 166 163 178 114 128 260 156 121 176 208 207 225
160 164 172 171 170 173 176 173 177 183 184 180 188 193 202 211 212 338 273 202 187 188 174 169 185 160 184 171 188 123 171 116 153 229 171 240 192 187 190 201 205 184 205 204 195 219 211